星链-37364(STARLINK-37364)

导读

STARLINK-37364(NORAD编号68783)是美国SpaceX公司星链(Starlink)低轨互联网星座中的一颗卫星,属于星链大规模组网计划的组成部分。星链项目旨在构建覆盖全球的天基互联网系统,计划总计部署超过4万颗低轨卫星。该卫星运行于近地轨道,采用Ku/Ka频段通信,为全球用户提供高带宽、低延迟的互联网接入服务,可覆盖偏远地区、海洋、航空等传统网络难以覆盖的场景。作为SpaceX持续扩张星链星座的一部分,它依托猎鹰9号可重复使用火箭发射,单星成本控制在较低水平,助力星链实现全球联网覆盖的战略目标。截至当前,星链已有超九千颗卫星在轨正常工作,该卫星是星座运营网络的重要组成单元。

Basic Information
目录编号:
68783
目录名称:
STARLINK-37364
国际标识:
2026-086T
轨道中心:
EARTH
卫星名称:
星链-37364
卫星全名:
星链-37364(STARLINK-37364)
卫星状态:
在轨 (已飞行138 天)
发射日期:
2026-04-19 UTC
国别 :
美国 (US)
星等 :
--
Orbit Information
数据来源 国际轨道数据
星历时间: 2026-09-04T10:14:23+0800
12小时前
查看轨道信息
半长轴: 6843.67km
偏心率: 0.000152
轨道倾角: 97.285°
近地点辐角 104.023°
升交点赤经 282.802°
平近点角 256.118°
近地点: 464.492km
远地点: 466.574km
周期: 93.906分钟
每日圈数: 15.334486
Detailed Information
固有亮度:
5
最大亮度:
2.5
卫星平台:
Starlink V1.0
覆盖范围:
全球
运营商:
太空探索技术公司
运营商所在国:
美国
制造商(研发单位):
太空探索技术公司
制造商所在国:
美国
使用方式:
暂无
Satellite Introduction
Starlink 计划是 SpaceX 推出的全球卫星互联网项目,通过发射低轨道卫星,为全球尤其是偏远地区提供高速、低延迟的互联网服务。自 2019 年起,Starlink 已部署数千颗卫星,旨在缩小全球数字鸿沟,推动互联网普及。该项目还为军事、航空等行业提供通信支持,带来广泛经济效益。
2D Orbit Map
3D Orbit Map
Orbit Altitude Analysis Chart
Orbit Inclination Analysis Chart
Orbit Comprehensive Analysis Chart
View Comprehensive Chart
Conjunction Data List
Event ID Objects TCA Miss Dist (km) Collision Risk Probability Collision Risk Index (CRI) Action
CDM_260904-122106-533806-878321
2026-09-04T
12:21:34+0000
2.783 km
极远距离
1.473303E-6 低风险 0.38
CDM_260904-100404-779006-878321
2026-09-04T
10:04:57+0000
2.871 km
极远距离
1.413163E-6 低风险 0.38
CDM_260905-204405-175206-878321
2026-09-05T
20:44:55+0000
2.527 km
极远距离
1.38956E-6 低风险 0.38
CDM_260905-052504-604706-878321
2026-09-05T
05:25:22+0000
2.626 km
极远距离
1.286631E-6 低风险 0.37
CDM_260902-001105-179206-878321
2026-09-02T
00:11:36+0000
2.866 km
极远距离
8.510088E-7 极低风险 0.34